Lid_Strength_Index
1 0 -0 -1 -1 -1 -1 -1 -1 -1 -1 -1 -2 -2 -1 -1 -1 -1 -0 -0 1 2 2 1 1 1 4
1 2 1 0 -0 -0 -0 1 1 1 -0 -1 -0 -1 -2 -1 -1 -1 -0 0 1 3 3 2 1 3 6
-0 1 2 2 1 1 1 2 3 1 2 2 2 0 -1 -2 -1 -1 -1 0 2 4 3 4 6 8 8
1 0 0 1 0 -0 -0 1 1 1 1 1 3 1 -0 -0 -1 -1 -1 1 6 11 12 8 11 10 9
1 0 0 0 0 0 0 0 0 1 2 2 2 1 2 3 4 3 3 5 9 12 12 12 12 12 11
1 1 0 1 2 2 1 0 1 2 2 3 3 3 2 3 4 5 6 6 8 10 10 12 12 12 12
-0 1 1 1 1 1 1 0 1 2 2 2 3 3 3 4 3 5 5 7 7 10 11 11 12 12 12
1 2 2 2 1 0 0 1 2 2 3 3 2 3 3 4 4 6 7 7 8 10 11 11 12 12 12
2 2 1 1 1 1 1 1 1 2 2 3 3 3 3 4 5 6 7 8 9 11 12 12 12 12 12
3 3 3 3 3 3 2 1 1 1 1 3 3 4 4 5 6 6 7 8 9 10 12 12 13 13 12
6 6 6 6 6 6 6 5 4 3 2 2 3 3 3 4 6 6 7 8 9 9 11 12 13 13 13
8 8 9 10 9 9 9 8 7 6 5 4 4 4 4 5 6 7 7 10 11 11 11 11 12 13 13
11 10 10 12 11 11 11 11 11 10 8 7 6 6 6 7 7 8 9 9 10 12 12 12 12 12 13
12 12 12 12 12 12 11 12 12 12 11 10 9 8 8 8 8 9 9 10 11 12 12 14 14 14 15
12 12 12 12 13 13 14 14 14 14 13 13 13 12 11 10 10 10 10 10 11 11 12 12 14 15 15
14 14 15 15 16 15 15 15 15 15 15 14 14 14 14 13 13 12 10 11 11 12 12 12 13 14 15